�������C�����ː����j�^�v���󋵏��
Date,Time,Cs137(Bq/L),Cs134(Bq/L),�S��(Bq/L)
2020/02/27,00:00,0.057,ND,25
2020/02/27,00:10,0.077,ND,26
2020/02/27,00:20,0.059,ND,26
2020/02/27,00:30,0.065,ND,26
2020/02/27,00:40,0.058,ND,29
2020/02/27,00:50,0.078,ND,26
2020/02/27,01:00,0.087,ND,26
2020/02/27,01:10,0.057,ND,26
2020/02/27,01:20,0.052,ND,26
2020/02/27,01:30,0.048,ND,29
2020/02/27,01:40,ND,ND,28
2020/02/27,01:50,ND,ND,27
2020/02/27,02:00,ND,ND,28
2020/02/27,02:10,ND,ND,28
2020/02/27,02:20,ND,ND,28
2020/02/27,02:30,ND,ND,28
2020/02/27,02:40,ND,ND,28
2020/02/27,02:50,0.054,ND,31
2020/02/27,03:00,0.056,ND,32
2020/02/27,03:10,ND,ND,31
2020/02/27,03:20,0.050,ND,32
2020/02/27,03:30,0.064,ND,30
2020/02/27,03:40,ND,ND,29
2020/02/27,03:50,ND,ND,30
2020/02/27,04:00,ND,ND,30
2020/02/27,04:10,ND,ND,30
2020/02/27,04:20,ND,ND,24
2020/02/27,04:30,ND,ND,26
2020/02/27,04:40,ND,ND,27
2020/02/27,04:50,ND,ND,26
2020/02/27,05:00,ND,ND,25
2020/02/27,05:10,ND,ND,28
2020/02/27,05:20,ND,ND,31
2020/02/27,05:30,0.073,ND,29
2020/02/27,05:40,ND,ND,28
2020/02/27,05:50,0.084,ND,28
2020/02/27,06:00,0.056,ND,28
2020/02/27,06:10,0.060,ND,28
2020/02/27,06:20,0.063,ND,27
2020/02/27,06:30,0.068,ND,30
2020/02/27,06:40,0.083,ND,31
2020/02/27,06:50,0.079,ND,30
2020/02/27,07:00,0.074,ND,28
2020/02/27,07:10,0.059,ND,25
2020/02/27,07:20,0.072,ND,28
2020/02/27,07:30,0.067,ND,26
2020/02/27,07:40,ND,ND,24
2020/02/27,07:50,ND,ND,23
2020/02/27,08:00,0.049,ND,24
2020/02/27,08:10,0.066,ND,25
2020/02/27,08:20,ND,ND,24
2020/02/27,08:30,ND,ND,23
2020/02/27,08:40,0.075,ND,22
2020/02/27,08:50,0.095,ND,25
2020/02/27,09:00,0.11,ND,27
2020/02/27,09:10,0.11,ND,26
2020/02/27,09:20,0.11,ND,26
2020/02/27,09:30,0.11,ND,28
2020/02/27,09:40,0.098,ND,28
2020/02/27,09:50,0.091,ND,24
2020/02/27,10:00,0.059,ND,23
2020/02/27,10:10,ND,ND,24
2020/02/27,10:20,ND,ND,22
2020/02/27,10:30,ND,ND,23
2020/02/27,10:40,ND,ND,22
2020/02/27,10:50,ND,ND,26
2020/02/27,11:00,ND,ND,28
2020/02/27,11:10,0.063,ND,30
2020/02/27,11:20,0.057,ND,30
2020/02/27,11:30,0.058,ND,28
2020/02/27,11:40,0.057,ND,30
2020/02/27,11:50,0.068,ND,28
2020/02/27,12:00,0.079,ND,27
2020/02/27,12:10,0.065,ND,25
2020/02/27,12:20,0.074,ND,24
2020/02/27,12:30,0.068,ND,26
2020/02/27,12:40,0.073,ND,26
2020/02/27,12:50,0.094,ND,28
2020/02/27,13:00,0.094,ND,27
2020/02/27,13:10,0.10,ND,28
2020/02/27,13:20,0.10,ND,27
2020/02/27,13:30,0.098,ND,27
2020/02/27,13:40,0.098,ND,24
2020/02/27,13:50,0.076,ND,22
2020/02/27,14:00,0.068,ND,22
2020/02/27,14:10,0.058,ND,20
2020/02/27,14:20,ND,ND,23
2020/02/27,14:30,0.049,ND,24
2020/02/27,14:40,ND,ND,24
2020/02/27,14:50,ND,ND,27
2020/02/27,15:00,ND,ND,30
2020/02/27,15:10,ND,ND,32
2020/02/27,15:20,ND,ND,31
2020/02/27,15:30,ND,ND,30
2020/02/27,15:40,0.049,ND,32
2020/02/27,15:50,0.070,ND,30
2020/02/27,16:00,0.066,ND,25
2020/02/27,16:10,0.070,ND,26
2020/02/27,16:20,0.064,ND,26
2020/02/27,16:30,0.050,ND,25
2020/02/27,16:40,0.050,ND,26
2020/02/27,16:50,ND,ND,24
2020/02/27,17:00,0.060,ND,28
2020/02/27,17:10,0.057,ND,25
2020/02/27,17:20,0.063,ND,26
2020/02/27,17:30,0.057,ND,24
2020/02/27,17:40,0.085,ND,23
2020/02/27,17:50,0.061,ND,26
2020/02/27,18:00,0.049,ND,26
2020/02/27,18:10,ND,ND,25
2020/02/27,18:20,ND,ND,25
2020/02/27,18:30,ND,ND,25
2020/02/27,18:40,ND,ND,27
2020/02/27,18:50,ND,ND,27
2020/02/27,19:00,ND,ND,24
2020/02/27,19:10,ND,ND,27
2020/02/27,19:20,0.049,ND,27
2020/02/27,19:30,ND,ND,28
2020/02/27,19:40,ND,ND,24
2020/02/27,19:50,0.050,ND,23
2020/02/27,20:00,0.048,ND,23
2020/02/27,20:10,0.056,ND,20
2020/02/27,20:20,0.058,ND,21
2020/02/27,20:30,ND,ND,23
2020/02/27,20:40,ND,ND,23
2020/02/27,20:50,ND,ND,24
2020/02/27,21:00,ND,ND,26
2020/02/27,21:10,ND,ND,27
2020/02/27,21:20,ND,ND,25
2020/02/27,21:30,0.067,ND,25
2020/02/27,21:40,0.085,ND,28
2020/02/27,21:50,0.080,ND,26
2020/02/27,22:00,0.079,ND,29
2020/02/27,22:10,0.080,ND,31
2020/02/27,22:20,0.073,ND,32
2020/02/27,22:30,0.063,ND,31
2020/02/27,22:40,0.051,ND,28
2020/02/27,22:50,0.053,ND,27
2020/02/27,23:00,ND,ND,23
2020/02/27,23:10,ND,ND,21
2020/02/27,23:20,ND,ND,22
2020/02/27,23:30,0.049,ND,20
2020/02/27,23:40,ND,ND,22
2020/02/27,23:50,0.055,ND,22
